TimeEST,TemperatureF,Dew PointF,Humidity,Sea Level PressureIn,VisibilityMPH,Wind Direction,Wind SpeedMPH,Gust SpeedMPH,PrecipitationIn,Events,Conditions,WindDirDegrees,DateUTC
12:05 AM,12.2,8.6,85,29.99,7.0,West,11.5,21.9,N/A,,Overcast,280,2013-02-21 05:05:00
12:25 AM,12.2,8.6,85,29.99,5.0,WNW,11.5,24.2,N/A,,Overcast,290,2013-02-21 05:25:00
12:45 AM,12.2,8.6,85,29.99,7.0,WNW,15.0,23.0,N/A,,Overcast,290,2013-02-21 05:45:00
1:05 AM,12.2,8.6,85,29.99,7.0,WNW,13.8,23.0,N/A,,Overcast,290,2013-02-21 06:05:00
1:25 AM,12.2,8.6,85,29.99,4.0,West,12.7,24.2,N/A,,Overcast,280,2013-02-21 06:25:00
1:45 AM,12.2,8.6,85,29.99,4.0,West,13.8,25.3,N/A,,Overcast,280,2013-02-21 06:45:00
2:05 AM,12.2,10.4,92,29.99,2.5,West,9.2,18.4,N/A,,Overcast,280,2013-02-21 07:05:00
2:25 AM,12.2,10.4,92,29.99,3.0,West,12.7,23.0,N/A,,Overcast,280,2013-02-21 07:25:00
2:45 AM,12.2,10.4,92,29.99,3.0,West,16.1,21.9,N/A,,Overcast,280,2013-02-21 07:45:00
3:05 AM,12.2,10.4,92,29.98,3.0,West,15.0,24.2,N/A,,Overcast,270,2013-02-21 08:05:00
3:25 AM,12.2,10.4,92,29.98,4.0,West,13.8,20.7,N/A,,Overcast,280,2013-02-21 08:25:00
3:45 AM,12.2,10.4,92,29.99,2.5,West,16.1,24.2,N/A,,Overcast,280,2013-02-21 08:45:00
4:05 AM,12.2,10.4,92,29.99,2.5,WNW,15.0,25.3,N/A,,Overcast,290,2013-02-21 09:05:00
4:25 AM,12.2,10.4,92,30.00,4.0,West,9.2,21.9,N/A,,Overcast,280,2013-02-21 09:25:00
4:45 AM,12.2,10.4,92,30.00,3.0,WNW,13.8,23.0,N/A,,Overcast,290,2013-02-21 09:45:00
5:05 AM,12.2,10.4,92,30.01,2.5,West,11.5,21.9,N/A,,Overcast,280,2013-02-21 10:05:00
5:25 AM,12.2,10.4,92,30.01,3.0,West,15.0,24.2,N/A,,Overcast,270,2013-02-21 10:25:00
5:45 AM,12.2,10.4,92,30.01,2.5,WNW,13.8,23.0,N/A,,Overcast,290,2013-02-21 10:45:00
6:05 AM,12.2,12.2,100,30.02,3.0,WNW,9.2,24.2,N/A,,Overcast,290,2013-02-21 11:05:00
6:25 AM,12.2,12.2,100,30.03,3.0,WNW,13.8,21.9,N/A,,Overcast,290,2013-02-21 11:25:00
7:05 AM,12.2,12.2,100,30.04,2.0,West,10.4,19.6,N/A,,Overcast,280,2013-02-21 12:05:00
7:25 AM,12.2,12.2,100,30.05,1.0,West,11.5,20.7,N/A,,Overcast,280,2013-02-21 12:25:00
7:45 AM,12.2,12.2,100,30.05,1.0,West,12.7,19.6,N/A,,Overcast,280,2013-02-21 12:45:00
8:05 AM,12.2,12.2,100,30.06,0.8,WNW,10.4,18.4,N/A,,Overcast,290,2013-02-21 13:05:00
8:25 AM,12.2,12.2,100,30.07,0.5,West,9.2,23.0,N/A,Fog,Light Freezing Fog,280,2013-02-21 13:25:00
8:45 AM,12.2,12.2,100,30.07,0.8,WNW,12.7,21.9,N/A,,Overcast,300,2013-02-21 13:45:00
9:05 AM,12.2,12.2,100,30.07,1.5,WNW,12.7,20.7,N/A,,Overcast,290,2013-02-21 14:05:00
9:25 AM,14.0,10.4,86,30.08,3.0,WNW,15.0,23.0,N/A,,Overcast,290,2013-02-21 14:25:00
9:45 AM,14.0,10.4,86,30.10,4.0,West,15.0,23.0,N/A,,Overcast,280,2013-02-21 14:45:00
10:05 AM,14.0,10.4,86,30.09,4.0,WNW,11.5,20.7,N/A,,Overcast,300,2013-02-21 15:05:00
10:25 AM,14.0,12.2,93,30.08,4.0,WNW,11.5,20.7,N/A,,Overcast,300,2013-02-21 15:25:00
10:45 AM,14.0,12.2,93,30.09,2.5,WNW,9.2,17.3,N/A,,Overcast,290,2013-02-21 15:45:00
11:05 AM,14.0,12.2,93,30.10,3.0,West,12.7,23.0,N/A,,Overcast,280,2013-02-21 16:05:00
11:25 AM,15.8,12.2,86,30.10,3.0,WNW,11.5,19.6,N/A,,Overcast,290,2013-02-21 16:25:00
11:45 AM,15.8,12.2,86,30.10,4.0,West,10.4,20.7,N/A,,Overcast,280,2013-02-21 16:45:00
12:05 PM,17.6,12.2,79,30.10,5.0,WNW,10.4,19.6,N/A,,Haze,300,2013-02-21 17:05:00
12:25 PM,17.6,12.2,79,30.10,7.0,West,9.2,21.9,N/A,,Overcast,280,2013-02-21 17:25:00
12:45 PM,17.6,12.2,79,30.09,7.0,WNW,12.7,20.7,N/A,,Overcast,300,2013-02-21 17:45:00
1:10 PM,19.4,12.2,74,30.09,10.0,West,11.5,18.4,N/A,,Overcast,280,2013-02-21 18:10:00
1:30 PM,19.4,14.0,80,30.09,10.0,West,11.5,17.3,N/A,,Overcast,270,2013-02-21 18:30:00
2:10 PM,19.4,14.0,80,30.10,10.0,WNW,8.1,17.3,N/A,,Overcast,300,2013-02-21 19:10:00
2:30 PM,19.4,14.0,80,30.10,10.0,West,9.2,-,N/A,,Overcast,280,2013-02-21 19:30:00
2:50 PM,19.4,14.0,80,30.10,10.0,WNW,9.2,16.1,N/A,,Overcast,290,2013-02-21 19:50:00
3:10 PM,19.4,14.0,80,30.11,10.0,NW,8.1,-,N/A,,Overcast,320,2013-02-21 20:10:00
3:30 PM,19.4,14.0,80,30.10,10.0,WNW,10.4,17.3,N/A,,Overcast,300,2013-02-21 20:30:00
3:50 PM,19.4,14.0,80,30.08,10.0,WNW,6.9,-,N/A,,Overcast,300,2013-02-21 20:50:00
4:10 PM,21.2,14.0,74,30.10,10.0,NW,6.9,-,N/A,,Overcast,310,2013-02-21 21:10:00
4:30 PM,19.4,14.0,80,30.12,10.0,WNW,8.1,-,N/A,,Overcast,290,2013-02-21 21:30:00
4:50 PM,19.4,14.0,80,30.13,10.0,NW,5.8,-,N/A,,Scattered Clouds,310,2013-02-21 21:50:00
5:10 PM,19.4,14.0,80,30.13,10.0,West,5.8,-,N/A,,Scattered Clouds,280,2013-02-21 22:10:00
5:30 PM,19.4,14.0,80,30.14,10.0,WNW,5.8,-,N/A,,Scattered Clouds,300,2013-02-21 22:30:00
5:50 PM,17.6,14.0,86,30.15,10.0,WNW,4.6,-,N/A,,Clear,300,2013-02-21 22:50:00
6:10 PM,17.6,14.0,86,30.17,10.0,NW,3.5,-,N/A,,Clear,310,2013-02-21 23:10:00
6:30 PM,17.6,14.0,86,30.17,10.0,NW,3.5,-,N/A,,Clear,320,2013-02-21 23:30:00
6:50 PM,17.6,14.0,86,30.17,10.0,WNW,3.5,-,N/A,,Clear,300,2013-02-21 23:50:00
7:10 PM,15.8,14.0,93,30.17,10.0,NNW,4.6,-,N/A,,Clear,340,2013-02-22 00:10:00
7:30 PM,15.8,14.0,93,30.17,10.0,NNE,3.5,-,N/A,,Clear,20,2013-02-22 00:30:00
7:50 PM,15.8,15.8,100,30.18,10.0,North,4.6,-,N/A,,Clear,10,2013-02-22 00:50:00
8:10 PM,15.8,15.8,100,30.17,10.0,North,4.6,-,N/A,,Clear,10,2013-02-22 01:10:00
8:30 PM,14.0,14.0,100,30.17,10.0,Calm,Calm,-,N/A,,Clear,0,2013-02-22 01:30:00
8:50 PM,14.0,14.0,100,30.16,10.0,NE,3.5,-,N/A,,Clear,50,2013-02-22 01:50:00
9:10 PM,15.8,15.8,100,30.15,10.0,East,5.8,-,N/A,,Clear,100,2013-02-22 02:10:00
9:30 PM,15.8,15.8,100,30.15,10.0,East,6.9,-,N/A,,Clear,90,2013-02-22 02:30:00
9:50 PM,14.0,14.0,100,30.15,10.0,ESE,11.5,-,N/A,,Clear,120,2013-02-22 02:50:00
10:10 PM,15.8,15.8,100,30.13,10.0,ESE,15.0,-,N/A,,Clear,110,2013-02-22 03:10:00
10:30 PM,17.6,14.0,86,30.12,10.0,East,17.3,-,N/A,,Clear,100,2013-02-22 03:30:00
10:50 PM,17.6,14.0,86,30.12,10.0,ESE,19.6,-,N/A,,Clear,110,2013-02-22 03:50:00
11:10 PM,17.6,14.0,86,30.11,10.0,ESE,18.4,23.0,N/A,,Clear,120,2013-02-22 04:10:00
11:30 PM,19.4,14.0,80,30.10,10.0,ESE,19.6,23.0,N/A,,Clear,120,2013-02-22 04:30:00
11:50 PM,19.4,14.0,80,30.12,10.0,SE,18.4,-,N/A,,Clear,130,2013-02-22 04:50:00